Flag for U.S.A. Weather past 2 weeks in Honolulu, Hawaii, U.S.A.

78 °F

Passing clouds.

Feels Like: 80 °F
Forecast: 72 / 80 °F
Wind: 14 mph from Northeast

Location: Honolulu International Airport

Current Time: Nov 29, 2015 at 8:46:02 PM

Latest Report: Nov 29, 2015 at 7:53 PM

Visibility: 10 mi

Pressure: 30.08 "Hg

Humidity: 62%

Dew point: 64 °F

Location of HonoluluLocation

Historic Weather in Honolulu — Graph


Honolulu temperature yesterday

Maximum temperature yesterday: 84 °F (at 1:53 PM)
Minimum temperature yesterday: 76 °F (at 3:53 AM)
Average temperature yesterday: 79 °F

Past Weeks' High & Low Weather Summary

High87 °F (Nov 15, 11:53 AM)100% (Nov 20, 1:53 AM)30.09 "Hg (Nov 20, 1:53 AM)
Low69 °F (Nov 17, 6:53 AM)45% (Nov 15, 11:53 AM)29.77 "Hg (Nov 22, 1:53 PM)
Average78 °F77%29.94 "Hg
* Reported Nov 14 6:53 PM — Nov 29 6:53 PM, Honolulu, Weather by CustomWeather, © 2015

Note: Actual official high and low records may vary slightly from our data, if they occured in-between our weather recording intervals... More about our weather records


Honolulu weather history for previous 24 hours

Time TempWeatherWind HumidityBarometerVisibility
6:53 PM
Sun, Nov 29
78 °FPassing clouds.12 mph64%30.06 "Hg10 mi
5:53 PM79 °FPassing clouds.17 mph65%30.05 "Hg10 mi
4:53 PM81 °FScattered clouds.14 mph65%30.03 "Hg10 mi
3:53 PM81 °FBroken clouds.14 mph60%30.01 "Hg10 mi
2:53 PM84 °FScattered clouds.9 mph59%30.01 "Hg10 mi
1:53 PM84 °FScattered clouds.15 mph57%30.02 "Hg10 mi
12:53 PM83 °FScattered clouds.13 mph57%30.04 "Hg10 mi
11:53 AM82 °FScattered clouds.13 mph58%30.07 "Hg10 mi
10:53 AM83 °FScattered clouds.14 mph57%30.08 "Hg10 mi
9:53 AM83 °FScattered clouds.16 mph57%30.09 "Hg10 mi
8:53 AM79 °FScattered clouds.12 mph65%30.08 "Hg10 mi
7:53 AM79 °FScattered clouds.14 mph62%30.06 "Hg10 mi
6:53 AM78 °FBroken clouds.12 mph66%30.05 "Hg10 mi
5:53 AM78 °FPartly cloudy.8 mph69%30.01 "Hg10 mi
4:53 AM78 °FPartly cloudy.10 mph71%29.99 "Hg10 mi
3:53 AM76 °FLight rain. Partly cloudy.20 mph80%30.01 "Hg10 mi
2:53 AM77 °FPartly cloudy.14 mph77%30.02 "Hg10 mi
2:07 AM75 °FPartly cloudy.13 mph83%30.04 "Hg10 mi
2:00 AM75 °FLight rain. Mostly cloudy.9 mph83%30.04 "Hg10 mi
1:07 AM77 °FPartly cloudy.6 mph79%30.05 "Hg10 mi
1:00 AM77 °FMostly cloudy.5 mph79%30.04 "Hg10 mi
12:46 AM77 °FPassing clouds.15 mph79%30.04 "Hg10 mi
11:53 PM
Sat, Nov 28
77 °FPartly cloudy.15 mph74%30.04 "Hg10 mi
10:53 PM78 °FPassing clouds.16 mph69%30.05 "Hg10 mi
9:53 PM78 °FPassing clouds.14 mph66%30.05 "Hg10 mi
8:53 PM78 °FLight rain. Passing clouds.12 mph69%30.05 "Hg10 mi
Weather by CustomWeather, © 2015

See weather overviewHow to use our weather pages